Starlink 31010

operational
NORAD ID: 58519 Int'l Des: 2023-191 Owner: SPXS Country: US Constellation: starlink
LEOCIRCULAR

About Starlink 31010

Description loading...

Live Position

Loading 3D Globe...

Upcoming Passes

Altitude History

Altitude vs Time

uPlot chart will show altitude changes over time

Two-Line Element Set

1 58519U 23191M 25303.77651972 .00000587 00000-0 58519-4 0 9993
2 58519 43.0044 91.4465 0001310 269.6783 90.3909 15.02536745105903
Epoch: Oct 30, 2025 • Age: 27 hours

Current Status

Altitude 560.1 km
Velocity 7.58 km/s
Sub-Earth Point -9.00°S, 69.64°E
Launch Date Dec 7, 2023
Age 1.9 years
Type internet

Technical Details

Classification Payload
Mass 730.00 kg
Dry Mass 700.00 kg
Total Mass 730.00 kg
Length 0.30 m
Diameter 4.10 m
Span 29.00 m
Shape Box + pan
Manufacturer SPXS
Bus Type Starlink V2M
Phase Status In Orbit
Owner/State SPXS/US

Large Constellations

Loading constellations...